TimeCST,TemperatureF,Dew PointF,Humidity,Sea Level PressureIn,VisibilityMPH,Wind Direction,Wind SpeedMPH,Gust SpeedMPH,PrecipitationIn,Events,Conditions,WindDirDegrees,DateUTC
12:53 AM,21.0,12.9,71,30.35,10.0,WSW,12.7,-,N/A,,Clear,240,2013-12-12 06:53:00
1:53 AM,19.9,12.9,74,30.33,10.0,WSW,11.5,-,N/A,,Clear,250,2013-12-12 07:53:00
2:53 AM,19.9,12.9,74,30.34,10.0,WSW,11.5,-,N/A,,Clear,250,2013-12-12 08:53:00
3:53 AM,17.1,10.9,77,30.43,10.0,West,8.1,-,N/A,,Clear,260,2013-12-12 09:53:00
4:53 AM,16.0,10.9,81,30.43,10.0,WSW,8.1,-,N/A,,Clear,240,2013-12-12 10:53:00
5:53 AM,12.9,9.0,84,30.42,10.0,Calm,Calm,-,N/A,,Clear,0,2013-12-12 11:53:00
6:53 AM,12.0,8.1,84,30.42,10.0,WSW,5.8,-,N/A,,Clear,250,2013-12-12 12:53:00
7:53 AM,12.0,8.1,84,30.43,10.0,WSW,5.8,-,N/A,,Clear,250,2013-12-12 13:53:00
8:53 AM,15.1,9.0,77,30.41,10.0,WSW,9.2,-,N/A,,Clear,250,2013-12-12 14:53:00
9:53 AM,19.9,12.0,71,30.41,10.0,West,6.9,-,N/A,,Clear,260,2013-12-12 15:53:00
10:53 AM,25.0,15.1,66,30.39,10.0,West,6.9,-,N/A,,Clear,260,2013-12-12 16:53:00
11:53 AM,30.0,17.1,59,30.36,10.0,WSW,8.1,-,N/A,,Clear,250,2013-12-12 17:53:00
12:53 PM,35.1,19.9,54,30.32,10.0,West,4.6,-,N/A,,Clear,270,2013-12-12 18:53:00
1:53 PM,39.9,19.9,45,30.27,10.0,Calm,Calm,-,N/A,,Clear,0,2013-12-12 19:53:00
2:53 PM,42.1,23.0,47,30.22,10.0,East,3.5,-,N/A,,Clear,100,2013-12-12 20:53:00
3:53 PM,45.0,24.1,44,30.19,10.0,SSE,6.9,-,N/A,,Clear,150,2013-12-12 21:53:00
4:53 PM,42.1,26.1,53,30.18,10.0,SE,6.9,-,N/A,,Clear,130,2013-12-12 22:53:00
5:53 PM,37.0,25.0,62,30.19,10.0,ENE,5.8,-,N/A,,Clear,60,2013-12-12 23:53:00
6:53 PM,33.1,24.1,70,30.17,10.0,ENE,6.9,-,N/A,,Clear,70,2013-12-13 00:53:00
7:53 PM,30.0,23.0,75,30.16,10.0,ENE,4.6,-,N/A,,Clear,60,2013-12-13 01:53:00
8:53 PM,26.1,21.0,81,30.14,10.0,East,5.8,-,N/A,,Clear,80,2013-12-13 02:53:00
9:53 PM,24.1,19.9,84,30.12,10.0,NE,5.8,-,N/A,,Clear,50,2013-12-13 03:53:00
10:53 PM,21.0,18.0,88,30.10,10.0,NNE,8.1,-,N/A,,Clear,30,2013-12-13 04:53:00
11:53 PM,21.0,18.0,88,30.06,10.0,Calm,Calm,-,N/A,,Clear,0,2013-12-13 05:53:00